Simultaneous Nadir Overpasses (SNOs) Predictions

Prediction of SNOs between METOP-C and LANDSAT-8 Satellite Orbit:

Table of predicted SNOs for the next 14.0 days since TLE Epoch: 11/4/2023
Index Date (METOP-C) Time (METOP-C) Lat,Lon (METOP-C) SZA (METOP-C ) Date (LANDSAT-8) Time (LANDSAT-8) Lat,Lon (LANDSAT-8) SZA (LANDSAT-8 ) Distance(km) Time Diff (sec)
1 11/05/2023 00:31:06 -81.12, 32.01 80.98 11/05/2023 00:31:21 -81.12, 32.10 80.96 1.47 15
2 11/05/2023 01:21:44 81.14,-160.00 99.12 11/05/2023 01:20:46 81.15,-159.82 99.12 3.28 58
3 11/07/2023 20:05:31 -81.13, 98.70 80.11 11/07/2023 20:05:34 -81.14, 98.72 80.10 0.43 3
4 11/07/2023 20:56:10 81.14, -93.72 99.94 11/07/2023 20:55:00 81.14, -93.60 99.92 2.11 70
5 11/10/2023 14:49:16 81.11, -2.82 100.61 11/10/2023 14:50:21 81.11, -2.92 100.62 1.78 65
6 11/10/2023 15:39:57 -81.13, 164.90 79.33 11/10/2023 15:39:47 -81.13, 165.07 79.32 2.85 10
7 11/13/2023 10:23:39 81.13, 64.01 101.42 11/13/2023 10:24:31 81.13, 63.87 101.43 2.41 52
8 11/13/2023 11:14:21 -81.13,-128.64 78.57 11/13/2023 11:13:58 -81.13,-128.49 78.56 2.51 23
9 11/16/2023 05:58:05 81.11, 129.99 102.08 11/16/2023 05:58:43 81.11, 130.03 102.10 0.83 38



Historial Predications of SNOs between METOP-C and LANDSAT-8
